Lapse_Rate
5.6 5.6 5.5 5.8 5.9 5.8 5.7 5.6 5.3 5.2 5.2 5.2 5.2 5.1 5.3 5.1 5.0 5.0 5.0 4.9 4.7 4.7 4.7 4.8 4.8 4.7 4.4 4.3 4.3 4.2 3.8 4.6 4.9 5.0 5.2 5.2 5.1 5.2 5.4 5.6 5.6 5.8 5.9 6.1 6.1
6.1 6.1 6.0 6.0 6.0 6.1 6.0 5.8 5.7 5.5 5.3 5.1 5.2 5.2 5.3 5.3 5.1 5.0 4.9 4.8 4.8 4.7 4.8 4.7 4.9 4.8 4.5 4.3 4.2 3.9 4.0 4.4 4.6 4.8 4.9 5.0 5.1 4.9 5.0 5.2 5.6 5.8 6.0 6.0 6.0
6.6 6.6 6.6 6.5 6.5 6.4 6.2 6.1 6.0 5.7 5.5 5.5 5.4 5.5 5.4 5.5 5.6 5.0 4.9 5.0 4.8 4.8 4.8 4.6 4.3 4.4 4.5 4.2 4.2 3.9 4.4 4.3 4.3 4.5 4.5 4.7 4.8 4.9 5.1 5.6 5.6 5.4 5.5 5.8 6.0
6.8 6.8 6.8 6.7 6.8 6.8 6.5 6.2 6.1 5.8 5.6 5.5 5.5 5.7 5.5 5.5 5.4 5.0 5.0 4.8 4.8 4.7 4.6 4.5 4.4 4.2 4.2 4.0 4.1 4.0 4.8 4.2 4.4 4.4 4.7 4.7 4.8 5.3 5.4 5.8 5.4 5.4 5.5 5.7 5.8
6.6 6.7 6.8 6.7 6.6 6.7 6.6 6.5 6.3 6.0 5.8 5.8 5.8 5.9 5.8 5.7 5.4 5.2 4.9 4.6 4.5 4.5 4.6 4.6 4.5 4.1 4.1 4.1 3.8 4.1 4.7 4.6 4.5 4.7 4.8 4.9 5.3 4.9 5.6 5.3 5.3 5.3 5.3 5.4 5.6
6.6 6.6 6.8 6.8 6.9 6.8 6.8 6.6 6.4 6.2 5.9 5.9 5.9 5.8 5.7 5.6 5.4 5.1 4.8 4.6 4.5 4.5 4.6 4.5 4.4 4.2 4.0 4.2 3.8 4.1 4.2 4.7 4.7 4.9 4.6 4.8 5.0 5.0 5.7 5.4 5.3 5.5 5.6 5.6 5.6
6.5 6.6 6.6 6.7 6.7 6.7 7.0 6.7 6.6 6.3 6.2 6.2 6.1 5.8 6.0 5.6 5.5 5.0 4.6 4.5 4.6 4.6 4.7 4.6 4.3 4.0 4.1 4.3 4.2 4.3 4.4 5.0 5.4 5.4 4.9 4.8 4.9 5.4 5.2 5.3 5.3 5.4 5.2 5.2 5.3
6.7 6.4 6.6 6.6 6.7 6.7 6.7 6.8 6.7 6.7 6.7 6.6 6.2 6.2 5.9 5.7 5.3 4.9 4.8 4.6 4.6 4.8 4.4 4.6 4.3 4.2 4.0 4.4 4.4 4.7 4.6 5.1 5.5 5.4 5.1 4.7 5.1 5.1 4.9 4.9 5.0 5.0 5.0 5.0 5.2
7.1 6.9 6.7 6.6 6.5 6.6 6.8 6.6 6.5 6.6 6.6 6.6 6.4 6.0 5.8 5.5 5.1 5.0 5.0 4.8 4.7 4.9 4.2 4.2 4.5 4.6 4.8 4.9 5.0 5.1 5.1 5.3 5.5 5.3 4.8 4.7 5.0 5.1 5.0 4.8 4.8 4.8 4.7 5.0 5.4
7.3 7.3 7.1 6.9 6.6 6.5 6.6 6.7 6.5 6.5 6.3 6.4 6.2 6.0 5.6 5.3 5.2 5.3 4.9 4.2 3.9 3.9 4.2 4.5 4.7 5.0 5.3 5.4 5.4 5.3 5.1 5.3 5.5 4.8 4.5 4.7 5.1 5.2 4.7 4.6 4.8 4.5 4.9 5.4 5.3
7.2 7.3 7.4 7.4 7.0 6.8 6.7 6.8 6.5 6.3 6.3 6.3 5.9 5.9 5.7 5.4 5.2 4.9 4.5 4.7 4.4 4.4 4.3 4.7 5.2 5.6 5.4 5.6 5.4 5.3 5.3 5.1 5.7 5.1 4.5 5.1 5.0 5.5 4.8 4.6 5.0 4.9 5.4 5.2 5.0
7.0 7.3 7.3 7.4 7.3 7.2 7.2 7.2 7.1 6.8 6.4 6.2 6.1 5.8 5.6 5.4 5.1 4.9 5.2 5.2 5.1 4.9 4.7 5.1 5.9 5.7 5.9 5.8 5.5 5.4 5.3 5.6 5.2 5.1 4.6 4.8 5.0 5.1 5.2 5.4 5.6 5.3 4.8 4.7 4.7
7.1 7.2 7.3 7.3 7.3 7.4 7.6 7.5 7.3 7.1 6.7 6.9 6.3 5.7 5.6 5.5 5.3 5.4 5.4 5.4 5.3 5.3 5.1 5.5 6.0 6.1 5.9 5.7 5.4 5.5 5.1 5.1 4.7 4.8 4.9 4.5 4.7 5.4 5.2 5.6 5.6 5.0 4.8 4.8 5.0
7.3 7.3 7.3 7.5 7.4 7.2 7.5 7.5 7.3 7.1 6.7 6.2 6.0 5.8 5.5 5.5 5.6 5.6 5.6 5.5 5.5 5.5 5.5 6.0 6.3 6.3 5.9 5.6 5.3 5.3 5.3 4.9 4.6 4.2 4.0 4.1 2.9 4.9 5.1 5.1 5.2 5.2 4.9 4.6 4.8
7.4 7.4 7.5 7.5 7.4 7.1 7.1 7.3 7.3 7.1 4.6 6.3 5.9 5.7 5.7 5.7 5.7 6.0 5.9 5.6 5.6 5.6 5.7 6.2 6.0 6.0 5.7 5.4 5.1 5.0 5.0 4.6 4.4 3.9 3.5 3.9 3.4 4.9 5.0 5.4 5.1 4.6 4.4 4.3 4.4
7.5 7.5 7.7 7.6 7.4 7.1 7.1 7.1 6.9 6.4 4.7 6.4 6.1 6.1 6.0 6.0 6.0 5.7 5.6 5.6 5.7 6.0 6.2 6.4 5.9 5.9 5.7 5.3 5.1 5.0 4.8 4.6 4.0 3.4 2.3 4.0 3.8 5.0 5.1 5.1 4.7 4.5 4.4 4.4 4.3
7.5 7.6 7.7 7.6 7.6 7.3 7.1 6.9 6.4 5.9 6.7 6.3 6.3 6.2 5.9 5.9 6.0 5.8 5.7 5.6 5.7 5.8 6.0 6.2 6.1 5.9 5.7 5.3 5.2 5.0 4.9 3.0 2.9 2.5 3.5 4.2 4.0 5.2 5.0 4.8 4.7 4.7 4.6 4.0 3.9
7.5 7.6 7.6 7.6 7.6 7.5 6.9 6.4 6.0 6.9 6.5 6.2 6.0 5.8 5.7 5.8 5.7 5.7 5.7 5.5 5.5 5.4 5.6 5.7 6.2 6.0 5.9 5.3 5.1 5.0 4.8 4.2 3.3 2.7 4.2 4.0 3.9 5.2 4.9 4.9 4.7 4.5 4.2 3.8 3.5
7.3 7.5 7.6 7.6 7.7 7.3 6.9 6.1 7.2 6.8 6.5 6.2 6.3 6.1 6.0 5.9 5.7 5.6 5.6 5.5 5.5 5.5 5.7 5.5 5.9 5.8 5.5 5.5 4.9 4.6 4.7 4.6 4.4 4.1 3.5 4.9 5.1 5.2 4.9 5.0 4.5 4.0 3.6 3.4 3.5
7.3 7.2 7.4 7.4 7.5 7.1 6.6 6.6 6.9 6.6 6.0 6.0 6.1 6.1 5.8 5.8 5.6 5.6 5.7 5.7 5.7 5.8 5.6 5.6 5.5 6.0 5.5 5.1 4.9 4.8 4.6 4.1 4.4 3.6 3.5 4.5 4.9 5.2 5.2 4.9 4.2 4.0 3.6 3.9 4.2
8.1 8.0 7.6 7.4 7.1 7.0 6.1 6.3 6.7 6.4 6.2 6.2 6.2 5.9 5.7 5.8 5.9 5.8 5.7 5.9 5.8 5.8 5.8 5.6 5.3 5.9 5.4 5.3 5.0 4.7 4.5 4.1 4.1 4.2 2.9 3.2 5.1 5.3 5.2 4.6 4.1 3.9 3.8 4.3 4.0
7.8 8.3 8.1 7.7 6.9 6.6 6.5 6.6 6.8 6.6 6.6 6.4 6.3 6.0 5.8 5.8 5.8 5.4 5.8 5.8 5.7 5.9 6.0 6.1 5.6 5.5 5.6 5.0 4.6 4.4 4.2 4.4 4.2 4.2 4.0 3.4 4.6 5.3 4.6 4.5 4.0 3.7 4.1 4.0 3.8
7.5 8.1 8.0 7.8 7.1 7.1 7.2 7.0 6.9 6.6 6.2 5.9 6.2 5.9 5.8 5.9 5.8 5.6 5.7 5.9 6.0 6.2 6.2 6.0 5.4 5.3 5.1 5.0 4.7 4.4 4.1 4.0 4.1 4.0 4.2 3.4 4.9 5.2 4.6 4.3 4.0 4.0 4.2 3.9 4.2
7.0 7.6 8.0 8.2 7.6 7.3 7.0 6.6 6.2 6.2 6.1 6.1 6.1 6.1 6.0 5.8 5.7 5.8 5.8 5.9 6.3 6.3 6.0 5.6 5.1 5.3 5.2 5.1 4.7 4.3 4.1 4.0 3.9 4.1 4.7 4.8 5.4 5.1 4.3 3.9 3.8 4.0 4.0 4.1 4.2
7.0 7.4 7.8 8.3 8.2 7.1 6.7 6.3 6.4 6.2 6.1 6.0 6.1 6.1 5.9 5.7 5.6 5.6 5.6 5.6 6.0 6.0 5.5 5.1 5.1 5.1 5.0 4.8 4.4 4.2 4.1 4.1 3.9 4.3 4.1 4.9 4.9 5.0 4.1 4.2 3.9 4.1 4.1 4.3 3.9
7.6 7.2 7.7 7.9 8.2 7.6 6.4 6.1 6.3 6.1 6.0 5.9 5.9 5.9 5.8 5.7 5.7 5.7 5.3 5.2 5.4 5.7 5.4 5.0 4.8 4.6 4.8 4.6 4.3 4.3 4.3 4.2 4.3 4.4 4.2 4.6 5.0 4.6 4.5 4.1 4.1 4.4 3.9 4.2 3.6
7.2 7.3 7.3 7.6 7.9 7.7 6.8 6.2 6.3 6.1 6.0 5.9 6.0 5.9 5.8 5.8 5.9 5.6 5.3 5.1 5.3 5.4 4.9 4.5 4.5 4.4 4.4 4.4 4.3 4.2 4.6 4.6 5.1 4.9 5.0 4.7 4.7 4.4 4.3 4.1 4.2 4.3 3.9 4.4 3.9
Wind_Speed
16 16 17 15 12 11 11 10 12 12 13 15 17 19 21 21 18 3 3 3 2 8 7 5 3 2 3 2 2 3 2 3 4 4 3 2 1 2 0 3 2 3 4 2 9
19 21 20 18 15 13 12 12 12 11 14 15 17 19 20 20 4 3 3 3 5 6 4 4 2 3 1 1 1 4 3 7 4 2 2 2 1 3 1 0 2 3 4 5 7
15 18 20 21 16 15 15 13 12 11 12 13 15 18 20 12 4 2 3 3 4 3 1 2 2 0 1 2 3 4 5 4 3 2 2 2 2 4 4 5 6 7 9 7 4
17 17 17 19 18 17 17 15 13 11 11 12 14 17 20 1 4 2 2 3 3 1 1 1 1 1 2 3 2 2 7 4 4 2 2 3 1 2 6 5 2 6 10 7 7
16 17 19 19 19 18 17 18 14 11 10 8 11 12 5 4 7 1 2 4 2 1 1 0 1 1 2 2 4 5 3 3 3 5 5 3 7 6 6 6 5 8 9 9 7
18 18 18 20 21 20 18 16 13 13 12 5 9 5 2 3 1 1 3 2 1 2 2 3 2 1 3 3 2 2 4 7 6 6 5 6 5 6 6 6 7 8 9 7 8
20 21 21 20 21 21 20 16 14 13 11 5 5 1 1 10 3 2 2 1 0 1 1 1 1 2 1 4 2 3 6 7 5 3 4 3 5 8 4 5 9 8 7 6 6
21 22 21 22 19 18 18 18 15 12 10 4 3 3 6 3 3 3 1 2 3 2 2 3 1 1 2 4 5 3 2 4 3 1 1 3 7 6 2 8 8 8 7 6 5
21 23 22 21 18 15 15 17 15 12 6 6 3 3 6 3 2 3 2 1 2 2 1 2 3 2 2 2 3 3 3 4 7 1 1 3 6 3 2 6 7 7 6 4 0
24 23 23 22 20 18 17 14 7 4 3 3 0 0 3 1 2 1 1 2 2 3 2 3 4 2 2 3 3 3 3 5 6 2 2 5 14 10 5 7 8 6 4 2 4
23 25 24 24 22 18 10 3 4 2 1 4 2 3 2 1 1 2 2 2 2 3 3 0 2 5 8 7 2 2 3 6 5 5 4 7 10 14 6 6 8 6 3 3 5
19 24 25 24 21 17 4 4 4 1 5 5 5 5 1 1 2 3 2 2 3 3 3 2 7 8 4 3 4 5 4 7 6 2 1 7 12 9 3 3 4 7 2 4 8
16 19 24 26 20 4 5 2 5 3 2 4 1 1 0 2 3 2 3 1 4 3 6 7 4 3 5 3 3 3 5 3 5 6 4 5 7 3 2 5 5 4 3 1 4
15 18 21 25 1 3 1 4 5 2 3 4 2 1 1 1 3 0 2 1 2 3 3 5 3 3 3 3 5 4 2 0 3 5 3 3 5 3 2 1 3 2 5 6 8
13 15 18 10 4 2 4 7 5 1 4 2 2 1 1 2 3 2 1 2 3 3 2 4 2 2 3 3 4 4 0 1 1 3 3 1 2 5 1 4 5 5 6 7 8
11 13 14 3 1 2 8 7 1 6 5 2 2 2 2 1 1 1 1 1 2 3 3 6 2 2 2 2 1 1 1 4 2 2 2 4 4 3 3 4 4 4 7 9 11
11 11 6 1 2 6 5 1 3 3 3 4 2 1 2 3 2 2 2 4 1 5 5 4 2 1 2 1 1 3 4 3 5 2 4 3 2 6 3 5 5 6 8 10 10
11 11 4 3 3 3 2 4 5 5 3 1 2 1 2 3 1 3 1 0 4 2 2 1 4 2 1 1 2 1 4 4 4 2 4 3 5 4 3 4 3 3 6 9 12
7 2 2 2 3 1 4 3 7 6 2 2 4 1 1 2 1 5 1 1 3 2 3 1 4 1 2 2 1 2 1 2 1 2 1 3 3 2 3 7 5 8 8 11 13
1 2 3 1 3 2 2 5 3 1 2 4 5 2 1 2 4 4 3 1 2 3 3 0 4 1 1 2 1 2 3 2 2 2 4 3 3 3 5 6 8 9 10 11 12
2 1 2 3 1 1 4 5 2 2 2 1 2 2 1 2 1 1 2 2 2 2 0 3 1 3 1 4 5 1 2 1 1 2 3 2 4 5 6 3 7 8 8 9 12
2 1 1 2 1 1 3 4 3 2 5 1 2 1 1 1 1 2 3 3 3 2 4 3 3 4 6 1 1 1 3 2 3 4 1 2 5 2 3 3 3 8 8 10 9
3 2 1 2 2 2 2 2 2 3 2 1 2 2 2 1 2 4 2 4 3 1 3 2 2 4 5 4 2 4 4 4 5 2 5 4 5 2 3 5 3 5 8 10 10
2 2 1 2 1 5 4 4 3 3 2 3 2 2 2 2 4 3 2 2 4 4 5 4 2 4 3 2 2 2 2 4 5 2 3 5 7 5 5 5 6 7 6 10 10
3 5 4 3 3 3 3 3 7 4 1 2 1 2 2 1 1 3 1 1 5 2 1 3 3 3 8 12 10 8 7 5 7 6 5 4 6 5 3 5 4 4 7 9 12
3 4 3 3 5 6 1 3 5 1 4 3 2 4 3 2 2 3 3 2 1 1 2 1 3 3 4 3 7 9 10 10 11 8 8 1 10 4 3 4 4 5 7 7 10
3 1 4 5 3 5 5 5 7 5 1 2 3 3 3 2 1 2 2 5 4 1 3 3 2 2 4 4 5 5 6 9 5 3 6 5 4 4 1 1 3 5 5 7 10
Wind_Direction
306 302 296 293 291 295 299 307 312 323 328 332 335 336 335 334 330 343 262 199 280 319 334 311 14 16 79 31 107 119 74 236 252 198 266 325 136 23 360 110 68 15 138 216 134
349 347 318 286 286 286 288 293 304 319 324 330 333 334 332 333 337 291 255 293 315 335 16 25 28 12 45 184 105 115 158 221 220 216 241 303 222 171 164 237 185 40 33 87 123
345 343 345 338 286 282 283 288 293 303 315 326 332 332 329 334 333 252 201 298 325 48 84 297 283 130 232 126 197 174 215 220 268 215 206 231 278 171 163 242 215 192 178 164 146
344 337 338 334 344 326 287 275 281 294 308 320 331 334 324 315 324 235 235 311 307 93 282 308 31 74 239 225 186 236 241 231 278 246 177 236 164 257 197 223 281 201 165 161 169
345 342 337 333 328 332 332 310 271 270 284 306 328 345 355 8 257 221 323 339 342 174 39 338 90 126 252 300 318 221 273 301 323 307 250 262 231 222 239 239 122 132 156 177 181
345 341 339 333 326 321 321 328 314 285 280 318 328 11 52 294 230 107 353 359 14 48 26 40 134 189 254 247 206 321 281 276 275 249 235 216 241 161 246 164 163 159 181 184 183
341 339 337 332 322 317 310 310 311 322 318 314 356 155 149 244 343 296 316 264 14 85 136 94 119 48 151 296 343 282 304 311 249 289 253 181 268 233 201 158 175 188 193 182 180
344 339 336 332 326 313 306 301 298 301 302 298 122 139 242 259 288 274 342 354 17 52 95 137 73 175 193 320 346 286 32 343 271 24 38 108 280 270 267 165 193 200 208 190 169
340 335 335 337 338 331 315 298 291 294 296 134 123 165 264 315 254 235 161 220 311 349 59 86 53 85 25 78 351 347 259 241 308 173 109 170 280 293 130 176 208 214 217 181 25
333 331 329 332 333 335 324 293 274 304 54 99 238 198 279 257 194 173 186 124 90 85 53 55 48 60 38 94 237 231 255 265 246 261 222 243 257 258 233 206 226 227 174 46 323
331 327 329 329 326 329 331 29 20 55 191 199 181 277 253 356 57 190 162 103 102 85 183 64 47 226 218 207 213 208 217 252 262 261 247 249 266 272 246 235 231 217 161 334 320
329 325 328 328 323 319 330 61 140 228 314 246 238 240 203 28 277 241 88 172 168 204 144 9 242 238 245 195 210 221 268 274 281 268 224 285 273 280 277 263 208 146 95 349 339
327 324 329 327 321 3 83 121 316 287 271 307 358 110 268 46 271 301 138 33 213 223 198 195 224 77 186 209 221 236 214 245 250 329 263 300 291 341 13 83 99 109 89 8 288
321 325 334 330 7 314 44 305 303 272 9 283 317 309 85 94 274 122 94 144 267 260 277 227 265 188 210 248 160 269 192 223 321 10 256 28 285 301 188 292 182 167 9 315 326
311 317 337 29 303 14 293 315 307 82 7 183 182 163 317 181 311 28 6 84 245 267 56 271 207 214 232 223 172 240 264 260 206 217 2 213 88 269 79 285 248 248 330 338 295
298 309 335 17 46 258 308 313 50 46 258 208 163 207 15 132 243 331 24 25 255 274 224 240 292 181 183 99 89 358 327 43 52 117 359 232 149 264 202 216 284 299 328 320 314
289 301 311 202 233 303 322 282 18 175 320 179 148 76 38 297 313 170 59 2 18 22 0 318 219 88 118 61 44 73 49 331 349 357 236 214 141 252 237 219 221 280 312 313 309
284 293 260 224 263 324 55 56 216 237 213 238 114 360 210 0 272 333 172 290 47 81 30 18 321 171 75 181 195 169 143 154 249 285 290 179 237 265 233 205 223 266 281 306 323
311 305 269 235 231 88 92 185 211 211 257 71 37 61 218 142 122 10 68 81 56 45 158 286 268 49 35 97 133 210 187 173 104 233 351 229 276 329 242 272 311 330 343 326 323
142 335 262 220 150 111 127 237 218 334 351 72 179 163 247 316 5 26 358 353 93 74 168 210 301 162 150 108 20 171 160 57 8 301 285 288 279 243 277 288 318 331 327 323 319
129 67 246 323 89 120 215 227 169 16 114 79 167 171 193 299 304 286 297 121 126 222 286 113 114 280 15 206 183 98 318 236 105 156 193 305 277 218 221 239 285 306 309 308 318
173 211 258 121 106 26 157 208 154 165 74 123 126 70 124 51 300 272 235 218 152 115 161 182 163 265 231 341 328 271 205 149 145 264 102 144 276 267 212 238 231 296 312 308 308
202 210 283 131 174 233 298 252 159 188 186 112 107 122 100 93 270 257 295 96 118 222 179 161 225 312 336 5 352 237 201 135 97 78 216 139 264 233 90 318 312 289 320 315 320
164 185 298 67 171 145 169 220 117 18 85 91 103 88 131 206 199 279 262 159 189 213 224 178 215 232 243 221 131 251 204 166 149 146 191 231 291 294 37 298 330 327 329 318 320
197 222 187 176 214 148 160 196 179 179 30 107 122 203 151 179 296 230 254 319 197 275 215 166 245 224 262 261 244 245 244 181 186 210 183 246 223 272 246 262 276 311 319 337 343
229 141 351 160 137 121 128 198 182 136 154 185 175 145 147 158 191 293 350 214 319 45 183 205 272 276 274 271 259 252 241 229 214 239 257 241 290 151 227 254 349 345 346 337 339
234 283 115 164 133 132 187 173 189 141 272 147 145 120 212 254 68 334 275 279 268 277 217 184 253 299 265 331 298 272 229 201 194 207 160 192 236 154 182 85 349 334 340 327 333